�N����,����,�~����,�C��,���x,�C��,����,���ϕ���,�ő�u�ԕ���,�ő厞����,���˗�,�I�_���x,�n�����x,�ő啗���N��,DTYPE
"17/01/19","00:10",0.0,1.9,96.2,1018.0,263.1,1.7,2.2,253.6,0.00,1.4,4.2,"00:03:16",1
"17/01/19","00:20",0.0,2.0,95.9,1018.0,276.1,1.7,2.4,267.9,0.00,1.5,4.2,"00:12:26",1
"17/01/19","00:30",0.0,1.7,95.5,1017.8,307.8,2.2,3.1,314.0,0.00,1.1,4.2,"00:23:20",1
"17/01/19","00:40",0.0,1.5,95.9,1017.8,300.3,2.0,2.9,323.3,0.00,1.0,4.2,"00:31:00",1
"17/01/19","00:50",0.0,1.5,96.4,1017.8,274.9,1.3,2.0,291.0,0.00,1.0,4.1,"00:49:56",1
"17/01/19","01:00",0.0,1.8,96.7,1017.8,307.6,2.1,2.9,319.0,0.00,1.4,4.2,"00:58:54",1
"17/01/19","01:10",0.0,1.8,96.5,1017.3,317.4,1.2,3.4,330.8,0.00,1.3,4.2,"01:00:08",1
"17/01/19","01:20",0.0,1.7,96.5,1017.5,275.4,1.0,1.6,250.3,0.00,1.2,4.1,"01:14:00",1
"17/01/19","01:30",0.0,1.6,96.6,1017.5,288.9,1.5,2.2,309.7,0.00,1.2,4.2,"01:26:40",1
"17/01/19","01:40",0.0,1.8,97.0,1017.3,300.0,1.5,2.2,318.3,0.00,1.4,4.1,"01:34:24",1
"17/01/19","01:50",0.0,1.9,96.8,1017.5,302.0,1.6,2.5,313.1,0.00,1.5,4.1,"01:48:00",1
"17/01/19","02:00",0.0,1.9,96.8,1017.5,297.4,1.2,1.9,331.4,0.00,1.5,4.2,"01:50:24",1
"17/01/19","02:10",0.0,2.2,96.9,1017.5,289.8,1.6,3.5,320.7,0.00,1.8,4.1,"02:05:52",1
"17/01/19","02:20",0.0,2.5,96.3,1017.3,314.8,2.3,4.1,332.3,0.00,2.0,4.1,"02:15:52",1
"17/01/19","02:30",0.0,2.4,95.6,1017.8,322.7,1.7,2.8,313.7,0.00,1.8,4.1,"02:22:48",1
"17/01/19","02:40",0.0,2.4,95.8,1017.8,313.9,1.7,3.1,332.2,0.00,1.8,4.3,"02:37:28",1
"17/01/19","02:50",0.0,2.7,95.2,1017.5,321.7,2.6,4.0,314.2,0.00,2.0,4.3,"02:44:24",1
"17/01/19","03:00",0.0,2.9,93.7,1017.5,322.9,3.6,5.8,333.7,0.00,2.0,4.3,"02:57:36",1
"17/01/19","03:10",0.0,3.0,92.9,1017.5,325.0,3.4,5.1,319.4,0.00,2.0,4.2,"03:05:04",1
"17/01/19","03:20",0.0,3.1,92.2,1017.3,322.9,3.7,5.9,315.8,0.00,2.0,4.3,"03:17:12",1
"17/01/19","03:30",0.0,3.3,91.1,1017.5,323.9,3.5,5.2,326.6,0.00,2.0,4.4,"03:20:48",1
"17/01/19","03:40",0.0,3.2,91.0,1017.3,323.7,2.3,4.8,310.6,0.00,1.9,4.2,"03:32:16",1
"17/01/19","03:50",0.0,3.2,91.1,1017.3,330.5,2.7,5.1,304.7,0.00,1.9,4.2,"03:45:28",1
"17/01/19","04:00",0.0,3.1,91.2,1017.5,328.7,2.5,3.7,344.0,0.00,1.8,4.1,"03:51:28",1
"17/01/19","04:10",0.0,3.1,91.4,1017.1,330.8,2.6,4.3,337.4,0.00,1.9,4.1,"04:01:28",1
"17/01/19","04:20",0.0,3.1,91.7,1016.8,323.6,2.3,4.0,334.2,0.00,1.9,4.4,"04:11:36",1
"17/01/19","04:30",0.0,3.2,91.8,1016.6,324.2,2.7,3.7,322.7,0.00,2.0,4.2,"04:23:12",1
"17/01/19","04:40",0.0,3.2,91.9,1016.6,325.2,2.3,3.7,339.9,0.00,2.1,4.0,"04:30:56",1
"17/01/19","04:50",0.0,3.2,91.9,1016.6,323.0,2.3,4.2,324.8,0.00,2.1,4.3,"04:48:16",1
"17/01/19","05:00",0.0,3.3,91.8,1016.6,322.8,2.7,3.9,307.9,0.00,2.1,4.2,"04:58:08",1
"17/01/19","05:10",0.0,3.4,91.1,1016.4,313.4,3.0,4.4,333.7,0.00,2.1,4.2,"05:03:28",1
"17/01/19","05:20",0.0,3.4,90.7,1016.6,304.1,2.1,3.6,317.1,0.00,2.1,4.3,"05:11:52",1
"17/01/19","05:30",0.0,3.2,90.5,1016.4,254.0,0.7,2.2,321.1,0.00,1.8,4.2,"05:20:08",1
"17/01/19","05:40",0.0,3.0,91.1,1016.4,252.0,1.0,1.4,249.4,0.00,1.7,4.3,"05:30:08",1
"17/01/19","05:50",0.0,2.7,91.7,1016.1,265.9,0.8,1.6,250.6,0.00,1.5,4.2,"05:40:40",1
"17/01/19","06:00",0.0,2.5,92.2,1016.1,276.1,1.2,1.6,289.8,0.00,1.4,4.0,"05:56:00",1
"17/01/19","06:10",0.0,2.2,92.9,1015.9,302.9,1.7,3.4,324.5,0.00,1.2,4.1,"06:07:14",1
"17/01/19","06:20",0.0,1.9,93.7,1015.9,302.2,2.1,2.9,315.3,0.00,1.0,4.2,"06:16:40",1
"17/01/19","06:30",0.0,1.7,94.4,1015.6,303.9,1.8,2.5,312.3,0.00,0.9,4.1,"06:20:48",1
"17/01/19","06:40",0.0,1.5,95.1,1015.6,310.5,2.3,3.1,316.6,0.00,0.8,4.1,"06:36:46",1
"17/01/19","06:50",0.0,1.4,95.8,1015.6,282.9,1.2,1.9,293.2,0.00,0.8,4.1,"06:40:08",1
"17/01/19","07:00",0.0,1.6,97.0,1015.6,285.7,1.8,2.5,315.6,0.00,1.2,3.9,"06:57:56",1
"17/01/19","07:10",0.0,2.0,97.3,1015.9,321.5,2.5,3.7,331.6,0.00,1.7,4.1,"07:05:02",1
"17/01/19","07:20",0.0,2.5,97.3,1015.6,322.3,2.5,3.9,340.5,0.00,2.2,3.8,"07:16:16",1
"17/01/19","07:30",0.0,3.2,96.6,1015.6,317.9,3.4,5.2,310.5,0.00,2.8,4.0,"07:25:52",1
"17/01/19","07:40",0.0,3.4,94.4,1015.9,321.9,4.4,5.9,311.8,0.00,2.6,4.2,"07:36:56",1
"17/01/19","07:50",0.0,3.5,92.8,1016.1,316.9,3.5,5.0,321.6,0.00,2.5,3.9,"07:40:32",1
"17/01/19","08:00",0.0,3.4,92.3,1015.9,303.7,2.5,4.3,303.5,0.00,2.3,4.0,"07:51:04",1
"17/01/19","08:10",0.0,3.3,92.3,1016.4,293.0,2.0,2.7,295.9,0.00,2.2,4.0,"08:03:12",1
"17/01/19","08:20",0.0,3.4,92.4,1015.9,311.8,2.1,4.1,305.6,0.00,2.3,4.0,"08:11:20",1
"17/01/19","08:30",0.0,3.4,92.3,1016.1,281.8,0.5,1.3,294.4,0.00,2.3,4.2,"08:21:04",1
"17/01/19","08:40",0.0,3.5,92.7,1016.6,241.5,0.5,1.1,270.3,0.01,2.5,4.3,"08:30:40",1
"17/01/19","08:50",0.0,3.8,92.7,1016.6,278.4,1.2,2.4,309.6,0.03,2.8,4.0,"08:45:12",1
"17/01/19","09:00",0.0,4.3,92.1,1016.4,290.0,1.7,2.2,294.8,0.05,3.2,4.1,"08:56:16",1
"17/01/19","09:10",0.0,4.8,90.4,1016.6,277.4,1.1,1.7,298.8,0.08,3.4,4.2,"09:00:24",1
"17/01/19","09:20",0.0,5.6,87.1,1017.1,271.6,1.5,2.1,251.0,0.16,3.7,4.5,"09:18:24",1
"17/01/19","09:30",0.0,7.0,80.9,1017.1,306.0,2.2,4.0,324.3,0.19,4.0,4.5,"09:27:20",1
"17/01/19","09:40",0.0,7.2,78.6,1017.5,321.8,2.8,4.2,328.1,0.19,3.8,4.7,"09:37:20",1
"17/01/19","09:50",0.0,7.8,76.4,1017.3,319.1,2.7,3.9,309.4,0.23,4.0,4.6,"09:41:12",1
"17/01/19","10:00",0.0,8.2,75.8,1017.8,324.3,1.7,2.5,331.1,0.23,4.2,5.0,"09:54:24",1
"17/01/19","10:10",0.0,7.5,74.9,1017.5,323.1,1.2,2.8,332.2,0.11,3.4,5.0,"10:04:32",1
"17/01/19","10:20",0.0,7.7,74.2,1017.5,338.9,1.7,3.1,13.9,0.16,3.4,5.1,"10:17:52",1
"17/01/19","10:30",0.0,8.0,72.6,1017.5,338.8,2.1,4.9,331.7,0.24,3.4,5.2,"10:25:52",1
"17/01/19","10:40",0.0,8.2,71.3,1016.8,338.0,2.1,3.6,335.0,0.27,3.4,5.6,"10:32:08",1
"17/01/19","10:50",0.0,7.6,72.1,1016.6,332.8,2.8,4.8,332.6,0.22,2.9,5.5,"10:43:36",1
"17/01/19","11:00",0.0,7.6,73.0,1016.8,332.7,2.7,5.0,341.9,0.17,3.1,5.7,"10:50:56",1
"17/01/19","11:10",0.0,7.7,71.9,1016.4,336.7,2.5,4.5,340.8,0.21,3.0,5.7,"11:08:08",1
"17/01/19","11:20",0.0,7.7,72.0,1016.8,344.3,1.8,4.0,325.5,0.17,3.0,5.7,"11:10:24",1
"17/01/19","11:30",0.0,7.9,71.4,1016.4,338.7,1.0,2.1,342.1,0.18,3.1,5.8,"11:29:36",1
"17/01/19","11:40",0.0,7.6,69.2,1015.9,339.5,2.5,4.3,319.7,0.12,2.4,6.0,"11:35:44",1
"17/01/19","11:50",0.0,8.8,65.1,1016.1,338.2,2.2,4.5,325.0,0.39,2.7,6.1,"11:40:16",1
"17/01/19","12:00",0.0,8.4,66.1,1015.9,339.2,3.0,5.4,3.2,0.37,2.5,6.3,"11:55:28",1
"17/01/19","12:10",0.0,8.9,63.3,1015.6,351.3,2.2,5.6,331.2,0.42,2.4,6.4,"12:07:28",1
"17/01/19","12:20",0.0,7.7,66.6,1014.9,349.7,2.8,6.2,344.3,0.17,1.9,6.4,"12:10:24",1
"17/01/19","12:30",0.0,7.4,67.5,1015.4,355.3,2.6,5.6,5.3,0.16,1.8,6.4,"12:29:04",1
"17/01/19","12:40",0.0,7.7,67.2,1015.2,340.6,2.3,5.0,344.8,0.20,2.0,6.4,"12:34:32",1
"17/01/19","12:50",0.0,7.8,68.2,1014.9,337.7,2.2,4.4,5.4,0.20,2.4,6.5,"12:42:16",1
"17/01/19","13:00",0.0,8.1,66.3,1015.2,329.2,1.8,4.0,347.3,0.25,2.2,6.6,"12:51:36",1
"17/01/19","13:10",0.0,8.0,67.6,1014.5,339.7,1.7,5.5,16.4,0.24,2.4,6.5,"13:09:20",1
"17/01/19","13:20",0.0,8.2,67.1,1014.7,329.4,3.5,6.8,356.2,0.31,2.5,6.8,"13:12:40",1
"17/01/19","13:30",0.0,8.3,64.7,1014.2,324.5,3.0,5.7,336.0,0.33,2.1,6.7,"13:29:04",1
"17/01/19","13:40",0.0,8.6,63.4,1014.2,334.2,3.4,6.3,316.1,0.41,2.1,6.6,"13:35:28",1
"17/01/19","13:50",0.0,8.5,61.1,1014.5,334.2,2.8,6.2,326.2,0.30,1.5,6.8,"13:43:04",1
"17/01/19","14:00",0.0,8.5,62.4,1014.2,351.2,2.0,4.4,2.3,0.33,1.8,7.1,"13:54:00",1
"17/01/19","14:10",0.0,8.4,62.5,1014.7,346.8,2.6,5.1,339.9,0.28,1.7,7.1,"14:08:48",1
"17/01/19","14:20",0.0,8.5,62.0,1014.5,338.7,2.3,4.3,332.3,0.31,1.7,7.2,"14:10:08",1
"17/01/19","14:30",0.0,8.1,62.1,1014.2,332.2,2.6,7.0,318.6,0.22,1.3,7.2,"14:29:52",1
"17/01/19","14:40",0.0,7.6,63.3,1014.2,333.2,4.0,8.3,346.2,0.08,1.1,7.2,"14:38:24",1
"17/01/19","14:50",0.0,7.1,65.5,1014.0,333.7,3.5,6.5,347.8,0.11,1.1,7.2,"14:45:12",1
"17/01/19","15:00",0.0,7.4,65.3,1014.2,324.1,3.5,5.4,329.6,0.16,1.4,7.2,"14:52:24",1
"17/01/19","15:10",0.0,7.4,64.7,1014.0,319.9,3.1,4.7,307.2,0.14,1.2,7.5,"15:01:12",1
"17/01/19","15:20",0.0,7.3,67.5,1014.2,335.3,2.7,5.0,283.2,0.11,1.7,7.4,"15:10:32",1
"17/01/19","15:30",0.0,7.2,65.9,1014.2,329.0,2.7,4.8,304.4,0.11,1.3,7.3,"15:23:52",1
"17/01/19","15:40",0.0,7.3,65.3,1014.5,315.8,3.1,4.9,318.9,0.09,1.3,7.1,"15:36:08",1
"17/01/19","15:50",0.0,7.3,64.7,1014.2,328.0,3.0,4.8,334.8,0.08,1.1,7.1,"15:42:16",1
"17/01/19","16:00",0.0,7.1,64.7,1014.5,316.4,3.5,5.5,339.1,0.06,0.9,7.1,"15:58:16",1
"17/01/19","16:10",0.0,6.9,65.7,1014.2,329.6,3.6,7.2,338.2,0.05,1.0,7.1,"16:04:24",1
"17/01/19","16:20",0.0,6.7,66.8,1014.7,325.0,3.2,5.7,331.7,0.04,1.0,7.0,"16:18:24",1
"17/01/19","16:30",0.0,6.5,66.8,1014.5,327.6,3.6,6.2,334.4,0.04,0.8,7.0,"16:22:32",1
"17/01/19","16:40",0.0,6.4,67.4,1014.5,339.4,2.8,4.5,343.4,0.02,0.8,6.9,"16:31:36",1
"17/01/19","16:50",0.0,6.1,68.8,1014.5,319.2,2.8,4.0,323.8,0.01,0.8,6.9,"16:40:40",1
"17/01/19","17:00",0.0,5.9,68.7,1014.2,323.6,2.7,4.2,346.1,0.00,0.6,6.7,"16:57:36",1
"17/01/19","17:10",0.0,5.7,69.8,1014.0,322.0,2.8,5.4,333.1,0.00,0.7,6.7,"17:02:56",1
"17/01/19","17:20",0.0,5.2,72.2,1014.2,299.7,1.8,2.5,316.8,0.00,0.6,6.4,"17:16:16",1
"17/01/19","17:30",0.0,4.6,75.5,1014.2,306.8,1.7,2.6,318.4,0.00,0.7,6.4,"17:22:08",1
"17/01/19","17:40",0.0,4.0,78.5,1014.0,322.1,2.0,2.8,320.1,0.00,0.6,6.2,"17:34:24",1
"17/01/19","17:50",0.0,3.4,80.8,1014.0,302.0,1.5,2.1,323.3,0.00,0.5,6.2,"17:48:48",1
"17/01/19","18:00",0.0,2.9,83.2,1013.5,290.8,1.3,1.9,288.8,0.00,0.4,6.1,"17:59:34",1
"17/01/19","18:10",0.0,2.7,84.8,1013.8,311.3,2.2,2.8,325.3,0.00,0.4,5.9,"18:02:26",1
"17/01/19","18:20",0.0,2.5,85.5,1013.5,295.4,1.8,2.6,301.6,0.00,0.4,5.9,"18:11:24",1
"17/01/19","18:30",0.0,2.1,86.5,1013.5,291.2,1.8,2.1,310.7,0.00,0.1,5.9,"18:20:34",1
"17/01/19","18:40",0.0,1.8,88.1,1013.5,291.3,2.1,2.4,306.7,0.00,0.1,5.6,"18:39:00",1
"17/01/19","18:50",0.0,1.7,89.1,1013.0,293.7,2.2,2.6,301.7,0.00,0.1,5.6,"18:43:58",1
"17/01/19","19:00",0.0,1.6,89.9,1013.3,284.2,2.2,2.8,289.5,0.00,0.2,5.6,"18:59:24",1
"17/01/19","19:10",0.0,1.6,90.3,1012.8,299.0,2.6,3.1,312.6,0.00,0.2,5.6,"19:05:24",1
"17/01/19","19:20",0.0,1.4,90.6,1012.6,292.9,2.2,2.7,297.1,0.00,0.1,5.4,"19:15:54",1
"17/01/19","19:30",0.0,1.2,91.2,1012.6,286.2,1.8,2.4,293.7,0.00,0.0,5.5,"19:23:50",1
"17/01/19","19:40",0.0,1.2,91.8,1012.8,292.3,2.0,3.2,318.1,0.00,0.1,5.4,"19:39:30",1
"17/01/19","19:50",0.0,1.3,92.1,1012.6,304.1,2.6,3.9,317.5,0.00,0.2,5.2,"19:42:12",1
"17/01/19","20:00",0.0,1.3,91.8,1012.3,285.5,2.1,2.8,299.5,0.00,0.2,5.1,"19:54:34",1
"17/01/19","20:10",0.0,1.1,92.1,1011.9,271.2,1.8,2.1,269.2,0.00,0.0,4.8,"20:00:02",1
"17/01/19","20:20",0.0,1.1,92.1,1011.6,279.9,2.0,2.7,265.8,0.00,0.0,4.7,"20:15:44",1
"17/01/19","20:30",0.0,1.0,92.2,1011.6,290.9,2.5,3.9,321.5,0.00,-0.1,4.9,"20:26:50",1
"17/01/19","20:40",0.0,0.9,92.3,1011.9,305.8,2.5,3.3,330.0,0.00,-0.2,4.7,"20:30:48",1
"17/01/19","20:50",0.0,0.8,92.7,1011.6,305.7,2.3,4.0,318.0,0.00,-0.2,4.8,"20:49:36",1
"17/01/19","21:00",0.0,0.7,92.7,1011.6,290.9,2.0,2.9,309.3,0.00,-0.3,4.4,"20:50:08",1
"17/01/19","21:10",0.0,0.5,92.9,1011.4,286.2,1.8,2.6,292.5,0.00,-0.5,4.5,"21:09:44",1
"17/01/19","21:20",0.0,0.5,93.5,1011.4,304.0,2.7,3.4,314.2,0.00,-0.4,4.7,"21:12:24",1
"17/01/19","21:30",0.0,0.7,94.1,1011.4,308.8,2.5,4.2,305.3,0.00,-0.1,4.5,"21:27:12",1
"17/01/19","21:40",0.0,0.9,93.2,1011.9,302.4,2.6,4.4,312.0,0.00,0.0,4.4,"21:30:46",1
"17/01/19","21:50",0.0,0.6,92.7,1011.6,297.8,1.7,3.2,315.1,0.00,-0.4,4.4,"21:44:16",1
"17/01/19","22:00",0.0,0.3,92.9,1011.4,281.6,1.2,1.9,296.1,0.00,-0.7,4.3,"21:59:20",1
"17/01/19","22:10",0.0,0.3,93.5,1011.4,289.5,2.1,2.9,309.3,0.00,-0.6,4.0,"22:09:46",1
"17/01/19","22:20",0.0,0.3,93.7,1011.2,312.5,2.6,4.1,317.5,0.00,-0.6,4.1,"22:13:52",1
"17/01/19","22:30",0.0,0.8,94.0,1011.4,306.7,3.2,5.0,309.4,0.00,0.0,4.1,"22:22:42",1
"17/01/19","22:40",0.0,0.9,92.8,1011.4,314.1,3.2,4.9,326.1,0.00,-0.1,4.1,"22:31:06",1
"17/01/19","22:50",0.0,0.9,92.3,1011.4,324.1,3.4,4.5,341.7,0.00,-0.2,3.9,"22:47:10",1
"17/01/19","23:00",0.0,0.8,92.3,1012.1,319.7,3.1,4.2,320.0,0.00,-0.3,3.9,"22:59:10",1
"17/01/19","23:10",0.0,0.8,91.9,1011.9,324.6,3.7,5.6,334.0,0.00,-0.3,4.0,"23:03:02",1
"17/01/19","23:20",0.0,0.9,91.5,1011.6,328.7,4.2,5.9,337.9,0.00,-0.3,4.1,"23:17:30",1
"17/01/19","23:30",0.0,1.0,90.8,1011.4,318.7,3.2,4.9,324.8,0.00,-0.3,4.0,"23:20:12",1
"17/01/19","23:40",0.0,0.8,90.7,1011.6,321.8,2.8,4.3,328.0,0.00,-0.5,3.9,"23:31:28",1
"17/01/19","23:50",0.0,0.6,90.6,1011.6,331.9,2.5,4.8,326.2,0.00,-0.7,3.8,"23:45:20",1
"17/01/19","24:00",0.0,0.1,90.9,1011.4,320.6,1.6,2.7,324.2,0.00,-1.2,3.8,"23:56:32",1
